Погода в Пуэрто-Принсесе

Филиппины     9°44′04″N   118°45′58″E
темп.,
°C
ветер,
м/с
пор.,
м/с
влажн.,
%
обл.,
%
осадки,
мм/ч
давл.,
гПа
погр.,
м
28 января, чт
чт2823:00+25ссз1288100 0.3 101078
02:00+25ссз1285100 0.3 1009136
05:00+24сз2285100 0.0 1009106
08:00+26ссз2281100 0.0 1011169
11:00+29в2367100 0.0 1011727
14:00+29в5570100 0.0 1009818
17:00+27в6780100 0.3 1009557
20:00+26всв4686100 1.9 1010377
29 января, пт
пт2923:00+25ссв238560 0.1 1010256
02:00+25св258440 0.3 1010454
05:00+25всв588686 0.2 1009624
08:00+25св6108590 1.3 10111018
11:00+27всв7117690 0.4 10111153
14:00+27всв9127293 0.6 10091115
17:00+26всв8107652 0.1 1008947
20:00+25св6118144 0.1 1010901
30 января, сб
сб3023:00+25св6118194 0.2 1011978
02:00+25св488089 0.4 1010677
05:00+25св61181100 0.3 1009983
08:00+25св7128293 0.9 10121101
11:00+27всв9137593 0.6 10121207
14:00+27всв9127292 1.0 10111066
17:00+26всв8117452 0.1 10101059
20:00+25св597859 0.1 1011681
31 января, вс
вс3123:00+25св587838 0.0 1012712
02:00+25св587933 0.0 1011695
05:00+24св578243 0.1 1011638
08:00+25всв6108069 0.3 10121139
11:00+27всв7107286 0.3 10131194
14:00+27всв797179 0.6 10111005
17:00+27всв7107623 0.3 1010878
20:00+25св467912 0.3 1011470
1 февраля, пн
пн123:00+24св368110 0.0 1012564
02:00+24св468253 0.1 1011519
05:00+23ссв248374 0.1 1011430
08:00+25ссв237987 0.1 1012457
11:00+28всв4567100 0.0 1013906
14:00+28в5671100 0.0 1010695
17:00+27св5672100 0.1 1010687
20:00+25ссз348494 0.1 1011223